Meteo Giornale » Osservazioni meteo Italia » Pantelleria
ore: 23:50 - Osservazioni Meteo Pantelleria
Lat. 36° 49' N Lon. 11° 58' E Alt. 191 metri s.l.m.
26 °C
Sereno
Temp. 24 Ore
25 °C
30 °C
Est/Nord-Est
14.8 Km/h
Dew point 23 °C
Umidità 83 %
Visibilità 10 Km
Il sole sorge alle ore 06:43
Il sole tramonta alle ore 19:39
| Data e Ora | Cielo e Fenomeni | T °C | DP °C | Um. % | Pres. hPa | Vis. km | Vento km/h | |
|---|---|---|---|---|---|---|---|---|
| Ieri h: 23:50 | Sereno | 26 | 23 | 83 | 1019 | 10 | E/NE 14.8 | |
| Ieri h: 23:20 | Sereno | 26 | 23 | 83 | 1019 | 10 | E/NE 13 | |
| Ieri h: 22:50 | Sereno | 25 | 22 | 83 | 1019 | 10 | NE 13 | |
| Ieri h: 22:20 | Sereno | 26 | 22 | 78 | 1019 | 10 | N/NE 13 | |
| Ieri h: 21:50 | Sereno | 26 | 22 | 78 | 1019 | 10 | N/NE 13 | |
| Ieri h: 21:20 | Sereno | 26 | 22 | 78 | 1019 | 10 | N/NE 11.1 | |
| Ieri h: 20:50 | Sereno | 27 | 22 | 74 | 1019 | 10 | N 13 | |
| Ieri h: 20:20 | Sereno | 27 | 22 | 74 | 1018 | 10 | N 16.7 | |
| Ieri h: 19:50 | Sereno | 27 | 22 | 74 | 1018 | 10 | N 16.7 | |
| Ieri h: 19:20 | Sereno | 28 | 21 | 65 | 1018 | 10 | N 18.5 | |
| Ieri h: 18:50 | Sereno | 28 | 21 | 65 | 1018 | 10 | N 18.5 | |
| Ieri h: 18:20 | Sereno | 29 | 22 | 66 | 1018 | 10 | N 18.5 | |
| Ieri h: 17:50 | Sereno | 29 | 22 | 66 | 1018 | 10 | N/NO 20.3 | |
| Ieri h: 17:20 | Sereno | 30 | 22 | 62 | 1018 | 10 | N/NO 22.2 | |
| Ieri h: 16:50 | Sereno | 30 | 21 | 58 | 1018 | 10 | N/NO 20.3 | |
| Ieri h: 16:20 | Sereno | 30 | 20 | 55 | 1018 | 10 | N/NO 18.5 | |
| Ieri h: 15:50 | Sereno | 30 | 22 | 62 | 1018 | 10 | N/NO 18.5 | |
| Ieri h: 15:20 | Sereno | 29 | 23 | 70 | 1018 | 10 | NO 20.3 | |
| Ieri h: 14:50 | Sereno | 30 | 23 | 66 | 1018 | 10 | NO 20.3 | |
| Ieri h: 14:20 | Sereno | 29 | 23 | 70 | 1019 | 10 | NO 20.3 | |
| Ieri h: 13:50 | Sereno | 30 | 23 | 66 | 1019 | 10 | NO 22.2 | |
| Ieri h: 13:20 | Sereno | 29 | 23 | 70 | 1019 | 10 | O/NO 20.3 | |
| Ieri h: 12:50 | Poco Nuvoloso | 29 | 23 | 70 | 1019 | 10 | NO 14.8 | |
| Ieri h: 12:20 | Sereno | 29 | 24 | 74 | 1019 | 10 | NO 14.8 | |
| Ieri h: 11:50 | Poco Nuvoloso | 29 | 23 | 70 | 1019 | 10 | N/NO 14.8 | |
| Ieri h: 11:20 | Sereno | 29 | 23 | 70 | 1019 | 10 | N 14.8 | |
| Ieri h: 10:50 | Sereno | 29 | 23 | 70 | 1019 | 10 | N 14.8 | |
| Ieri h: 10:20 | Sereno | 29 | 23 | 70 | 1018 | 10 | N/NE 16.7 | |
| Ieri h: 09:50 | Sereno | 28 | 22 | 69 | 1018 | 10 | NE 20.3 | |
| Ieri h: 09:20 | Sereno | 28 | 22 | 69 | 1017 | 10 | NE 22.2 | |
| Ieri h: 08:50 | Sereno | 28 | 23 | 74 | 1017 | 10 | NE 25.9 | |
| Ieri h: 08:20 | Sereno | 27 | 23 | 78 | 1017 | 10 | NE 25.9 | |
| Ieri h: 07:50 | Poco Nuvoloso | 27 | 23 | 78 | 1018 | 10 | N/NE 22.2 | |
| Ieri h: 07:20 | Sereno | 26 | 22 | 78 | 1018 | 10 | N/NE 20.3 | |
| Ieri h: 06:50 | Sereno | 26 | 22 | 78 | 1017 | 10 | N/NE 18.5 | |
| Ieri h: 06:20 | Sereno | 26 | 23 | 83 | 1017 | 10 | N/NE 22.2 | |
| Ieri h: 05:50 | Sereno | 26 | 23 | 83 | 1017 | 10 | N/NE 27.8 | |
| Ieri h: 05:20 | Sereno | 26 | 23 | 83 | 1016 | 10 | NE 29.6 | |
| Ieri h: 04:50 | Sereno | 26 | 23 | 83 | 1016 | 10 | NE 27.8 | |
| Ieri h: 04:20 | Sereno | 26 | 23 | 83 | 1016 | 10 | NE 25.9 | |
| Ieri h: 03:50 | Sereno | 26 | 23 | 83 | 1016 | 10 | NE 25.9 | |
| Ieri h: 03:20 | Sereno | 26 | 24 | 88 | 1016 | 10 | NE 22.2 | |
| Ieri h: 02:50 | Sereno | 26 | 23 | 83 | 1017 | 10 | NE 20.3 | |
| Ieri h: 02:20 | Sereno | 26 | 24 | 88 | 1017 | 10 | N/NE 20.3 | |
| Ieri h: 01:50 | Sereno | 26 | 23 | 83 | 1017 | 10 | N/NE 18.5 | |
| Ieri h: 01:20 | Sereno | 26 | 23 | 83 | 1018 | 10 | N 16.7 | |
| Ieri h: 00:50 | Sereno | 26 | 23 | 83 | 1018 | 10 | N/NO 14.8 | |



